Location: Seattle
(47.6064°N, 122.3308°W)
Time: 00:41:48
(UTC-08:00)

Tiros 1 - Pass Details

Date: 26 November 2020
Orbit: 630 x 663 km, 48.4° (Epoch: 28 January)

Event Time Altitude Azimuth Distance (km) Brightness Sun altitude
Rises 17:23:00 0° 246° (WSW) 2,987 12.9 -10.0°
Reaches altitude 10° 17:25:21 10° 244° (WSW) 2,074 11.4 -10.4°
Maximum altitude 17:30:08 72° 161° (SSE) 693 7.3 -11.2°
Enters shadow 17:33:52 16° 79° (E) 1,679 8.6 -11.7°
Drops below altitude 10° 17:34:53 10° 78° (ENE) 2,064 - -11.9°
Sets 17:37:13 0° 76° (ENE) 2,971 - -12.3°
